User: anonymous   Login
Location: *
(51.5000°N, 0.1100°W)
Time: 18:46:01
(UTC+00:00)
Language:

Cosmos 2278 - Orbit

View from above orbital plane
View from above orbital plane
View from above satellite
View from above satellite

Ground track
Ground track

The orbit data is extracted from the following two-line orbital elements,

1 23087U 94023A   24204.76732113  .00000582  00000-0  33016-3 0  9991
2 23087  71.0555 339.5789 0010118 225.2944 134.7355 14.14117184560694
Epoch (UTC): 22 July 2024 18:24:56
Eccentricity: 0.0010118
inclination: 71.0555°
perigee height: 838 km
apogee height: 852 km
right ascension of ascending node: 339.5789°
argument of perigee: 225.2944°
revolutions per day: 14.14117184
mean anomaly at epoch: 134.7355°
orbit number at epoch: 56069

The dashed part of the orbit path shows where the satellite is in the earth's shadow,  

DLR